Weather History for Frankfurt, Germany

Change the Weather History Date:

Thursday, February 7, 2013

  Actual Average Record
Temperature  
Mean Temperature 36 °F -  
Max Temperature 40 °F 44 °F 57 °F (2001)
Min Temperature 31 °F 32 °F 5 °F (2012)
Degree Days  
Heating Degree Days 30    
Moisture  
Dew Point 30 °F    
Average Humidity 80    
Maximum Humidity 100    
Minimum Humidity 47    
Precipitation  
Precipitation 0.01 in - - ()
Sea Level Pressure  
Sea Level Pressure 29.80 in    
Wind  
Wind Speed 7 mph ()    
Max Wind Speed 13 mph    
Max Gust Speed -    
Visibility 7.7 miles    
Events Snow    
Averages and records for this station are not official NWS values.
T = Trace of Precipitation, MM = Missing Value Source: Averaged Metar Reports

Daily Weather History Graph

Daily Weather History Graph

Search for Another Location

Airport:

Trip Planner

Search our weather history database for the weather conditions in past years. The results will help you decide how hot, cold, wet, or windy it might be!

Date:

Astronomy

Feb. 07, 2013 Rise Set
Actual Time 7:49 AM CET 5:30 PM CET
Civil Twilight 7:15 AM CET 6:04 PM CET
Nautical Twilight 6:37 AM CET 6:42 PM CET
Astronomical Twilight 5:59 AM CET 7:20 PM CET
Moon 5:25 AM CET (2/7) 2:26 PM CET (2/7)
Length of Visible Light 10h 48m
Length of Day
9h 40m
Waning Crescent, 11% of the Moon is Illuminated
Feb 7
Waning Crescent
Feb 10
New
Feb 17
First Quarter
Feb 25
Full
Mar 4
Last Quarter

Hourly Weather History & Observations

Time (CET) Temp. Windchill Dew Point Humidity Pressure Visibility Wind Dir Wind Speed Gust Speed Precip Events Conditions
12:00 AM 31 °F - 28 °F 84% 29.70 in 25 mi NW 6.7 mph - -   Scattered Clouds
12:20 AM 32.0 °F 26.4 °F 28.4 °F 87% 29.68 in 6.2 mi WNW 5.8 mph - N/A   Mostly Cloudy
12:50 AM 33.8 °F 27.7 °F 30.2 °F 87% 29.68 in 6.2 mi NW 6.9 mph - N/A   Mostly Cloudy
1:00 AM 33 °F - 30 °F 82% 29.71 in 19 mi NW 6.7 mph - -   Partly Cloudy
1:20 AM 33.8 °F 28.6 °F 30.2 °F 87% 29.68 in 6.2 mi NW 5.8 mph - N/A   Mostly Cloudy
1:50 AM 33.8 °F 28.6 °F 30.2 °F 87% 29.68 in 6.2 mi WNW 5.8 mph - N/A   Mostly Cloudy
2:00 AM 34 °F - 30 °F 81% 29.71 in 12 mi WNW 6.7 mph - -   Mostly Cloudy
2:20 AM 33.8 °F 27.7 °F 32.0 °F 93% 29.68 in 6.2 mi NW 6.9 mph - N/A   Mostly Cloudy
2:50 AM 33.8 °F 28.6 °F 32.0 °F 93% 29.71 in 6.2 mi WNW 5.8 mph - N/A   Mostly Cloudy
3:00 AM 34 °F - 31 °F 84% 29.73 in 12 mi WNW 6.7 mph - -   Mostly Cloudy
3:20 AM 33.8 °F 29.6 °F 32.0 °F 93% 29.71 in 6.2 mi West 4.6 mph - N/A   Mostly Cloudy
3:50 AM 33.8 °F 28.6 °F 32.0 °F 93% 29.71 in 6.2 mi WSW 5.8 mph - N/A   Mostly Cloudy
4:20 AM 32.0 °F 26.4 °F 30.2 °F 93% 29.71 in 6.2 mi WSW 5.8 mph - N/A   Scattered Clouds
4:50 AM 35.6 °F 29.9 °F 30.2 °F 81% 29.74 in 6.2 mi West 6.9 mph - N/A   Scattered Clouds
5:00 AM 35 °F - 30 °F 74% 29.75 in 19 mi West 6.7 mph - -   Mostly Cloudy
5:20 AM 33.8 °F 28.6 °F 28.4 °F 81% 29.74 in 6.2 mi WSW 5.8 mph - N/A   Partly Cloudy
5:50 AM 35.6 °F 28.0 °F 30.2 °F 81% 29.74 in 6.2 mi SW 10.4 mph - N/A   Mostly Cloudy
6:00 AM 35 °F - 29 °F 72% 29.77 in 19 mi SW 11.2 mph - -   Partly Cloudy
6:20 AM 35.6 °F 29.9 °F 28.4 °F 75% 29.74 in 6.2 mi WNW 6.9 mph - N/A   Mostly Cloudy
6:50 AM 33.8 °F 26.4 °F 28.4 °F 81% 29.77 in 6.2 mi WNW 9.2 mph - N/A   Mostly Cloudy
7:00 AM 35 °F - 29 °F 71% 29.78 in 19 mi WNW 8.9 mph - -   Partly Cloudy
7:20 AM 33.8 °F 27.7 °F 28.4 °F 81% 29.77 in 6.2 mi West 6.9 mph - N/A   Mostly Cloudy
7:50 AM 33.8 °F 27.0 °F 30.2 °F 87% 29.77 in 6.2 mi SW 8.1 mph - N/A   Mostly Cloudy
8:00 AM 34 °F - 30 °F 78% 29.80 in 14 mi SW 6.7 mph - -   Mostly Cloudy
8:20 AM 33.8 °F 28.6 °F 30.2 °F 87% 29.77 in 6.2 mi SSW 5.8 mph - N/A   Mostly Cloudy
8:50 AM 33.8 °F 28.6 °F 30.2 °F 87% 29.80 in - WSW 5.8 mph - N/A Snow Snow Showers
9:00 AM 34 °F - 31 °F 82% 29.81 in 2 mi WSW 4.5 mph - - Snow Heavy Snow Showers
9:20 AM 33.8 °F 27.7 °F 32.0 °F 93% 29.80 in 6.2 mi SSW 6.9 mph - N/A Snow Light Snow Showers
9:50 AM 33.8 °F 27.7 °F 32.0 °F 93% 29.80 in 4.3 mi South 6.9 mph - N/A Snow Light Snow Showers
10:20 AM 33.8 °F 27.0 °F 32.0 °F 93% 29.80 in 6.2 mi SSW 8.1 mph - N/A Snow Light Snow Showers
10:50 AM 35.6 °F 29.2 °F 32.0 °F 87% 29.80 in 6.2 mi SSW 8.1 mph - N/A   Mostly Cloudy
11:00 AM 35 °F - 32 °F 83% 29.83 in 12 mi SSW 6.7 mph - - Snow Light Snow Showers
11:20 AM 35.6 °F 29.2 °F 33.8 °F 93% 29.83 in 6.2 mi SSW 8.1 mph - N/A   Mostly Cloudy
11:50 AM 37.4 °F 30.3 °F 33.8 °F 87% 29.83 in 6.2 mi SW 10.4 mph - N/A   Scattered Clouds
12:00 PM 37 °F - 33 °F 79% 29.84 in 16 mi SW 11.2 mph - -   Mostly Cloudy
12:20 PM 37.4 °F 29.8 °F 28.4 °F 70% 29.83 in 6.2 mi NNW 11.5 mph - N/A   Mostly Cloudy
12:50 PM 37.4 °F 30.3 °F 28.4 °F 70% 29.83 in 6.2 mi WNW 10.4 mph - N/A   Mostly Cloudy
1:00 PM 38 °F - 29 °F 60% 29.85 in 25 mi WNW 11.2 mph - - Snow Light Snow Showers
1:20 PM 39.2 °F 32.0 °F 28.4 °F 65% 29.83 in 6.2 mi WNW 11.5 mph - N/A   Mostly Cloudy
1:50 PM 37.4 °F 29.8 °F 30.2 °F 75% 29.83 in 6.2 mi NW 11.5 mph - N/A Snow Light Snow Showers
2:00 PM 38 °F - 29 °F 62% 29.85 in 7 mi NW 11.2 mph - - Snow Light Snow Showers
2:20 PM 39.2 °F 31.6 °F 28.4 °F 65% 29.83 in 6.2 mi WNW 12.7 mph - N/A   Mostly Cloudy
2:50 PM 39.2 °F 32.5 °F 28.4 °F 65% 29.83 in 6.2 mi WNW 10.4 mph - N/A   Scattered Clouds
3:20 PM 37.4 °F 32.1 °F 26.6 °F 65% 29.83 in 6.2 mi NW 6.9 mph - N/A   Scattered Clouds
3:50 PM 37.4 °F 30.8 °F 26.6 °F 65% 29.83 in 6.2 mi NW 9.2 mph - N/A   Scattered Clouds
4:20 PM 39.2 °F 35.0 °F 28.4 °F 65% 29.83 in 6.2 mi NW 5.8 mph - N/A   Scattered Clouds
4:50 PM 39.2 °F 34.2 °F 26.6 °F 61% 29.83 in 6.2 mi NW 6.9 mph - N/A   Scattered Clouds
5:00 PM 39 °F - 26 °F 47% 29.86 in 25 mi NW 6.7 mph - -   Partly Cloudy
5:20 PM 35.6 °F 32.8 °F 26.6 °F 70% 29.83 in 6.2 mi North 3.5 mph - N/A   Partly Cloudy
5:50 PM 37.4 °F 34.9 °F 26.6 °F 65% 29.86 in 6.2 mi Variable 3.5 mph - N/A   Scattered Clouds
6:20 PM 37.4 °F 29.8 °F 28.4 °F 70% 29.86 in 6.2 mi West 11.5 mph - N/A   Mostly Cloudy
6:50 PM 37.4 °F 30.8 °F 28.4 °F 70% 29.86 in 6.2 mi West 9.2 mph - N/A   Mostly Cloudy
7:00 PM 36 °F - 28 °F 65% 29.88 in 31 mi West 8.9 mph - -   Partly Cloudy
7:20 PM 35.6 °F 28.6 °F 28.4 °F 75% 29.86 in 6.2 mi West 9.2 mph - N/A   Scattered Clouds
7:50 PM 33.8 °F 26.4 °F 28.4 °F 81% 29.86 in 6.2 mi WSW 9.2 mph - N/A   Scattered Clouds
8:00 PM 33 °F - 28 °F 74% 29.89 in 31 mi WSW 8.9 mph - -   Partly Cloudy
8:20 PM 33.8 °F 27.0 °F 28.4 °F 81% 29.86 in 6.2 mi WSW 8.1 mph - N/A   Scattered Clouds
8:50 PM 33.8 °F 29.6 °F 30.2 °F 87% 29.86 in 6.2 mi SW 4.6 mph - N/A   Scattered Clouds
9:00 PM 33 °F - 29 °F 81% 29.89 in 31 mi SW 4.5 mph - -   Mostly Cloudy
9:20 PM 33.8 °F 27.7 °F 30.2 °F 87% 29.86 in 6.2 mi SW 6.9 mph - N/A   Scattered Clouds
9:50 PM 32.0 °F 25.6 °F 30.2 °F 93% 29.86 in 6.2 mi SW 6.9 mph - N/A   Scattered Clouds
10:20 PM 32.0 °F 27.5 °F 32.0 °F 100% 29.86 in 5.0 mi SW 4.6 mph - N/A Snow Snow Showers
10:50 PM 33.8 °F 30.8 °F 33.8 °F 100% 29.86 in 6.2 mi Variable 3.5 mph - N/A   Mostly Cloudy
11:00 PM 33 °F - 31 °F 92% 29.89 in 16 mi SSW 2.2 mph - - Snow Light Snow Showers
11:20 PM 32.0 °F 27.5 °F 32.0 °F 100% 29.86 in 6.2 mi SSW 4.6 mph - N/A   Mostly Cloudy
11:50 PM 32.0 °F - 32.0 °F 100% 29.86 in 6.2 mi Variable 2.3 mph - N/A   Mostly Cloudy